This is the latest recevied weather packets stored in our database for station/object VK4TOM-13. If no packets are shown the sender has not sent any weather packets the latest 10 day(s).
| Time | Temp. | Humidity | Pressure | Rain* | Wind** | Luminosity | Snow |
|---|---|---|---|---|---|---|---|
| 1777941486 | 25.56° C | 70% | 1016.4 hPa | 0 mm | - | - | - |
| 1777940884 | 25.56° C | 70% | 1016.4 hPa | 0 mm | - | - | - |
| 1777940283 | 25° C | 70% | 1016.6 hPa | 0 mm | - | - | - |
| 1777939682 | 25.56° C | 70% | 1016.5 hPa | 0 mm | - | - | - |
| 1777939081 | 25.56° C | 70% | 1016.5 hPa | 0 mm | - | - | - |
| 1777938480 | 25.56° C | 70% | 1016.9 hPa | 0 mm | - | - | - |
| 1777937879 | 25° C | 70% | 1017 hPa | 0 mm | - | - | - |
| 1777937278 | 25° C | 70% | 1017 hPa | 0 mm | - | - | - |
| 1777936677 | 24.44° C | 70% | 1017.1 hPa | 0 mm | - | - | - |
| 1777936076 | 25° C | 70% | 1016.9 hPa | 0 mm | - | - | - |
| 1777935475 | 25° C | 70% | 1017.1 hPa | 0 mm | - | - | - |
| 1777935290 | 25° C | 70% | 1017.1 hPa | 0 mm | - | - | - |
| 1777934355 | 23.89° C | 70% | 1017.4 hPa | 0 mm | - | - | - |
| 1777933754 | 23.33° C | 70% | 1017.3 hPa | 0 mm | - | - | - |
| 1777933153 | 23.33° C | 70% | 1017.3 hPa | 0 mm | - | - | - |
| 1777932552 | 22.78° C | 70% | 1017.4 hPa | 0 mm | - | - | - |
| 1777931951 | 22.78° C | 70% | 1017.3 hPa | 0 mm | - | - | - |
| 1777931350 | 22.22° C | 70% | 1017.2 hPa | 0 mm | - | - | - |
| 1777930749 | 21.67° C | 70% | 1017.2 hPa | 0 mm | - | - | - |
| 1777930148 | 21.11° C | 70% | 1017.2 hPa | 0 mm | - | - | - |
| 1777929547 | 20.56° C | 70% | 1017.1 hPa | 0 mm | - | - | - |
| 1777928946 | 20.56° C | 70% | 1016.8 hPa | 0 mm | - | - | - |
| 1777927744 | 20° C | 70% | 1016.7 hPa | 0 mm | - | - | - |
| 1777927142 | 19.44° C | 70% | 1016.6 hPa | 0 mm | - | - | - |
| 1777926541 | 19.44° C | 70% | 1016.4 hPa | 0 mm | - | - | - |
* Rain since midnight (hover to see other rain measurements)
** Current wind speed in m/s (hover to see current wind gust speed)